Погода в Бутурлиновке

Россия / Воронежская область     50°50′07″N   40°35′05″E
темп.,
°C
ветер,
м/с
пор.,
м/с
влажн.,
%
обл.,
%
осадки,
мм/ч
давл.,
гПа
погр.,
м
8 марта, пн
пн800:00−2зюз101690100 0.2 1007989
03:00−1зюз8158799 0.3 1007849
06:00−1зюз8139697 0.6 1007760
09:00−1зюз9138399 0.9 1006883
12:000зюз91386100 0.1 10071050
15:00+1зюз81278100 0.4 10061177
18:00−1зсз378098 1.4 1008217
21:00−3сз228493 1.4 101061
9 марта, вт
вт900:00−4сз228745 0.0 101034
03:00−5з129050 0.0 101024
06:00−5зсз239380 0.0 101162
09:00−4сз249081 0.1 1012373
12:00−3ссз4581100 0.6 1013657
15:00−4ссз5675100 0.8 1014919
18:00−6ссз459199 0.2 1016430
21:00−8ссз688699 0.8 1019742
10 марта, ср
ср1000:00−10ссз5784100 0.1 1021672
03:00−11ссз4784100 0.1 1022585
06:00−11сз478778 0.0 1023654
09:00−11сз578190 0.1 1025706
12:00−9ссз456789 0.0 1026897
15:00−8ссз456375 0.0 1026958
18:00−9с357123 0.0 1026629
21:00−11св348517 0.0 1027252
11 марта, чт
чт1100:00−13св358165 0.0 1028318
03:00−15св458571 0.0 1029268
06:00−17св358322 0.0 1030261
09:00−16всв357611 0.0 1032342
12:00−13всв34600 0.0 1032528
15:00−11всв33550 0.0 1031672
18:00−12всв34680 0.0 1032413
21:00−14в35800 0.0 1033252
12 марта, пт
пт1200:00−14вюв35780 0.0 1033248
03:00−14юв35730 0.0 1033212
06:00−14юв37700 0.0 1033216
09:00−12ююв586418 0.0 1032380
12:00−8ююв6852100 0.0 1030625
15:00−6ююв6947100 0.0 1028755
18:00−7ююв6124799 0.0 1025617
21:00−7ююв81549100 0.0 1024710